Weather History for Pasco, WA

Change the Weather History Date:

Thursday, February 21, 2013

  Actual Average Record
Temperature  
Mean Temperature 36 °F 40 °F  
Max Temperature 50 °F 51 °F 68 °F (1995)
Min Temperature 21 °F 29 °F 10 °F (1993)
Degree Days  
Heating Degree Days 29 25  
Month to date heating degree days 550 563  
Since 1 July heating degree days 3461 3714  
Cooling Degree Days 0 0  
Month to date cooling degree days 0 0  
Year to date cooling degree days 0 0  
Moisture  
Dew Point 28 °F    
Average Humidity 71    
Maximum Humidity 96    
Minimum Humidity 46    
Precipitation  
Precipitation T in - 0.70 in (1956)
Month to date precipitation T  
Year to date precipitation 0.36  
Snow  
Snow 0.00 in - - ()
Snow Depth 0.00 in    
Sea Level Pressure  
Sea Level Pressure 30.05 in    
Wind  
Wind Speed 8 mph (SW)    
Max Wind Speed 29 mph    
Max Gust Speed 35 mph    
Visibility 10 miles    
Events      
T = Trace of Precipitation, MM = Missing Value Source: NWS Daily Summary

Daily Weather History Graph

Daily Weather History Graph

Search for Another Location

Airport:

Trip Planner

Search our weather history database for the weather conditions in past years. The results will help you decide how hot, cold, wet, or windy it might be!

Date:

Astronomy

Feb. 21, 2013 Rise Set
Actual Time 6:49 AM PST 5:31 PM PST
Civil Twilight 6:18 AM PST 6:02 PM PST
Nautical Twilight 5:43 AM PST 6:37 PM PST
Astronomical Twilight 5:09 AM PST 7:11 PM PST
Moon 1:42 PM PST (2/21) 4:06 AM PST (2/21)
Length of Visible Light 11h 43m
Length of Day
10h 42m
Waxing Gibbous, 84% of the Moon is Illuminated
Feb 21
Waxing Gibbous
Feb 25
Full
Mar 4
Last Quarter
Mar 11
New
Mar 19
First Quarter

Hourly Weather History & Observations

Time (PST) Temp. Windchill Dew Point Humidity Pressure Visibility Wind Dir Wind Speed Gust Speed Precip Events Conditions
12:53 AM 23.0 °F - 21.0 °F 92% 30.04 in 10.0 mi Calm Calm - N/A   Clear
1:53 AM 24.1 °F - 21.9 °F 91% 30.05 in 10.0 mi Calm Calm - N/A   Clear
2:53 AM 21.9 °F 17.2 °F 19.9 °F 92% 30.04 in 10.0 mi NE 3.5 mph - N/A   Clear
3:53 AM 23.0 °F 18.4 °F 19.9 °F 88% 30.06 in 10.0 mi NW 3.5 mph - N/A   Clear
4:53 AM 24.1 °F 18.2 °F 21.0 °F 88% 30.06 in 10.0 mi East 4.6 mph - N/A   Scattered Clouds
5:53 AM 26.1 °F 21.9 °F 24.1 °F 92% 30.06 in 10.0 mi ENE 3.5 mph - N/A   Clear
6:53 AM 24.1 °F - 21.9 °F 91% 30.05 in 10.0 mi Calm Calm - N/A   Clear
7:53 AM 37.9 °F 30.0 °F 33.1 °F 83% 30.06 in 10.0 mi WSW 12.7 mph - N/A   Clear
8:53 AM 41.0 °F 34.3 °F 33.1 °F 73% 30.06 in 10.0 mi SW 11.5 mph - N/A   Clear
9:53 AM 44.1 °F 37.4 °F 34.0 °F 68% 30.07 in 10.0 mi WSW 13.8 mph - N/A   Mostly Cloudy
10:53 AM 45.0 °F 38.2 °F 34.0 °F 65% 30.07 in 10.0 mi SW 15.0 mph - N/A   Overcast
11:53 AM 46.9 °F - 33.1 °F 59% 30.06 in 10.0 mi SW 18.4 mph 28.8 mph N/A   Overcast
12:53 PM 46.9 °F - 30.9 °F 54% 30.06 in 10.0 mi SW 16.1 mph 28.8 mph N/A   Overcast
1:53 PM 46.9 °F - 30.9 °F 54% 30.05 in 10.0 mi SSW 19.6 mph 24.2 mph N/A   Overcast
2:53 PM 50.0 °F - 30.9 °F 48% 30.03 in 10.0 mi SW 18.4 mph 27.6 mph N/A   Partly Cloudy
3:53 PM 50.0 °F - 30.0 °F 46% 30.04 in 10.0 mi SW 24.2 mph 29.9 mph N/A   Clear
4:53 PM 46.9 °F - 30.0 °F 52% 30.03 in 10.0 mi SW 19.6 mph 26.5 mph N/A   Clear
5:53 PM 46.0 °F 39.6 °F 30.9 °F 56% 30.03 in 10.0 mi SW 15.0 mph 24.2 mph N/A   Overcast
6:53 PM 45.0 °F 37.6 °F 30.9 °F 58% 30.06 in 10.0 mi SW 17.3 mph 26.5 mph 0.00 in   Overcast
7:53 PM 44.1 °F 37.1 °F 30.0 °F 58% 30.04 in 10.0 mi SW 15.0 mph - N/A   Overcast
8:53 PM 42.1 °F 35.7 °F 30.0 °F 62% 30.04 in 10.0 mi SW 11.5 mph - N/A   Clear
9:53 PM 42.1 °F 37.1 °F 30.0 °F 62% 30.05 in 10.0 mi SW 8.1 mph - N/A   Mostly Cloudy
11:53 PM 42.1 °F 34.9 °F 32.0 °F 67% 30.05 in 10.0 mi SW 13.8 mph - N/A   Clear